| time (UTC) | temp F | wind direction | speed MPH | gust MPH | rain 1hr in | rain 24hr in | rain mn in | humidity % | barometer mb |
| 20260831134026 | 65 | 131 | 0.0 | 8.0 | 0.00 | 0.00 | 0.00 | 1021.1 | |
| 20260831133526 | 65 | 77 | 2.0 | 8.0 | 0.00 | 0.00 | 0.00 | 1021.1 | |
| 20260831133026 | 65 | 89 | 0.0 | 5.0 | 0.00 | 0.00 | 0.00 | 1021.1 | |
| 20260831132526 | 64 | 64 | 0.0 | 5.0 | 0.00 | 0.00 | 0.00 | 1021.2 | |
| 20260831132026 | 64 | 56 | 1.0 | 6.0 | 0.00 | 0.00 | 0.00 | 1021.1 | |
| 20260831131528 | 64 | 103 | 2.0 | 8.0 | 0.00 | 0.00 | 0.00 | 1021.2 | |
| 20260831131026 | 64 | 104 | 2.0 | 8.0 | 0.00 | 0.00 | 0.00 | 1021.0 | |
| 20260831130526 | 64 | 68 | 0.0 | 8.0 | 0.00 | 0.00 | 0.00 | 1021.1 | |
| 20260831130026 | 64 | 21 | 2.0 | 6.0 | 0.00 | 0.00 | 0.00 | 1021.2 | |
| 20260831125526 | 64 | 121 | 5.0 | 6.0 | 0.00 | 0.00 | 0.00 | 1021.2 | |
| 20260831125026 | 64 | 63 | 2.0 | 6.0 | 0.00 | 0.00 | 0.00 | 1021.2 | |
| 20260831124541 | 63 | 63 | 3.0 | 6.0 | 0.00 | 0.00 | 0.00 | 1021.2 | |
| 20260831124025 | 63 | 107 | 0.0 | 5.0 | 0.00 | 0.00 | 0.00 | 1021.3 | |
| 20260831123525 | 63 | 107 | 2.0 | 13.0 | 0.00 | 0.00 | 0.00 | 1021.2 | |
| 20260831123026 | 63 | 101 | 0.0 | 13.0 | 0.00 | 0.00 | 0.00 | 1021.1 | |
| 20260831122527 | 63 | 37 | 3.0 | 6.0 | 0.00 | 0.00 | 0.00 | 1021.0 | |
| 20260831122025 | 63 | 83 | 1.0 | 8.0 | 0.00 | 0.00 | 0.00 | 1020.9 | |
| 20260831121541 | 62 | 121 | 2.0 | 8.0 | 0.00 | 0.00 | 0.00 | 1020.8 | |
| 20260831121027 | 62 | 127 | 2.0 | 6.0 | 0.00 | 0.00 | 0.00 | 1020.8 | |
| 20260831120541 | 61 | 289 | 0.0 | 0.0 | 0.00 | 0.00 | 0.00 | 1020.9 | |
| 20260831120025 | 61 | 289 | 0.0 | 0.0 | 0.00 | 0.00 | 0.00 | 1020.7 | |
| 20260831115526 | 61 | 289 | 0.0 | 0.0 | 0.00 | 0.00 | 0.00 | 1020.8 | |
| 20260831115026 | 60 | 289 | 0.0 | 0.0 | 0.00 | 0.00 | 0.00 | 1020.9 | |
| 20260831114526 | 60 | 289 | 0.0 | 2.0 | 0.00 | 0.00 | 0.00 | 1020.8 | |
| 20260831114026 | 60 | 289 | 0.0 | 2.0 | 0.00 | 0.00 | 0.00 | 1020.7 | |
| 20260831113526 | 60 | 289 | 0.0 | 2.0 | 0.00 | 0.00 | 0.00 | 1020.7 | |
| 20260831113026 | 59 | 289 | 0.0 | 3.0 | 0.00 | 0.00 | 0.00 | 1020.6 | |
| 20260831112526 | 59 | 289 | 0.0 | 3.0 | 0.00 | 0.00 | 0.00 | 1020.6 | |
| 20260831112026 | 58 | 289 | 1.0 | 3.0 | 0.00 | 0.00 | 0.00 | 1020.6 | |
| 20260831111612 | 58 | 289 | 0.0 | 0.0 | 0.00 | 0.00 | 0.00 | 1020.4 | |
| 20260831111027 | 58 | 289 | 0.0 | 0.0 | 0.00 | 0.00 | 0.00 | 1020.4 | |
| 20260831110526 | 58 | 289 | 0.0 | 0.0 | 0.00 | 0.00 | 0.00 | 1020.3 | |
| 20260831110040 | 58 | 289 | 0.0 | 0.0 | 0.00 | 0.00 | 0.00 | 1020.3 | |
| 20260831105525 | 58 | 289 | 0.0 | 0.0 | 0.00 | 0.00 | 0.00 | 1020.3 | |
| 20260831105026 | 58 | 289 | 0.0 | 0.0 | 0.00 | 0.00 | 0.00 | 1020.3 | |
| 20260831104526 | 58 | 289 | 0.0 | 0.0 | 0.00 | 0.00 | 0.00 | 1020.0 | |
| 20260831104026 | 58 | 289 | 0.0 | 0.0 | 0.00 | 0.00 | 0.00 | 1020.0 | |
| 20260831103541 | 58 | 289 | 0.0 | 0.0 | 0.00 | 0.00 | 0.00 | 1020.0 | |
| 20260831103041 | 58 | 289 | 0.0 | 0.0 | 0.00 | 0.00 | 0.00 | 1019.9 | |
| 20260831102525 | 58 | 289 | 0.0 | 0.0 | 0.00 | 0.00 | 0.00 | 1020.1 | |
| 20260831102027 | 58 | 289 | 0.0 | 0.0 | 0.00 | 0.00 | 0.00 | 1020.0 | |
| 20260831101525 | 58 | 289 | 0.0 | 0.0 | 0.00 | 0.00 | 0.00 | 1019.9 | |
| 20260831101027 | 58 | 289 | 0.0 | 0.0 | 0.00 | 0.00 | 0.00 | 1019.9 | |
| 20260831100527 | 58 | 289 | 0.0 | 0.0 | 0.00 | 0.00 | 0.00 | 1019.9 | |
| 20260831100026 | 58 | 289 | 0.0 | 0.0 | 0.00 | 0.00 | 0.00 | 1019.9 | |
| 20260831095525 | 58 | 289 | 0.0 | 0.0 | 0.00 | 0.00 | 0.00 | 1019.8 | |
| 20260831095026 | 58 | 289 | 0.0 | 0.0 | 0.00 | 0.00 | 0.00 | 1019.7 | |
| 20260831094558 | 59 | 289 | 0.0 | 0.0 | 0.00 | 0.00 | 0.00 | 1019.6 | |
| 20260831094025 | 59 | 289 | 0.0 | 0.0 | 0.00 | 0.00 | 0.00 | 1019.6 | |
| 20260831093526 | 59 | 289 | 0.0 | 0.0 | 0.00 | 0.00 | 0.00 | 1019.7 | |
| 20260831093025 | 59 | 289 | 0.0 | 0.0 | 0.00 | 0.00 | 0.00 | 1019.6 | |
| 20260831092525 | 59 | 289 | 0.0 | 0.0 | 0.00 | 0.00 | 0.00 | 1019.7 | |
| 20260831092112 | 59 | 289 | 0.0 | 0.0 | 0.00 | 0.00 | 0.00 | 1019.6 | |
| 20260831091526 | 59 | 289 | 0.0 | 0.0 | 0.00 | 0.00 | 0.00 | 1019.6 | |
| 20260831091027 | 59 | 289 | 0.0 | 0.0 | 0.00 | 0.00 | 0.00 | 1019.5 | |
| 20260831090526 | 59 | 289 | 0.0 | 0.0 | 0.00 | 0.00 | 0.00 | 1019.6 | |
| 20260831090026 | 59 | 289 | 0.0 | 0.0 | 0.00 | 0.00 | 0.00 | 1019.6 | |
| 20260831085555 | 59 | 289 | 0.0 | 0.0 | 0.00 | 0.00 | 0.00 | 1019.6 | |
| 20260831085025 | 59 | 289 | 0.0 | 0.0 | 0.00 | 0.00 | 0.00 | 1019.7 | |
| 20260831084525 | 59 | 289 | 0.0 | 0.0 | 0.00 | 0.00 | 0.00 | 1019.6 | |
| 20260831084041 | 59 | 289 | 0.0 | 0.0 | 0.00 | 0.00 | 0.00 | 1019.7 | |
| 20260831083527 | 59 | 289 | 0.0 | 0.0 | 0.00 | 0.00 | 0.00 | 1019.5 | |
| 20260831083055 | 59 | 289 | 0.0 | 0.0 | 0.00 | 0.00 | 0.00 | 1019.6 | |
| 20260831082611 | 59 | 289 | 0.0 | 0.0 | 0.00 | 0.00 | 0.00 | 1019.5 | |
| 20260831082025 | 59 | 289 | 0.0 | 0.0 | 0.00 | 0.00 | 0.00 | 1019.5 | |
| 20260831081526 | 60 | 289 | 0.0 | 0.0 | 0.00 | 0.00 | 0.00 | 1019.4 | |
| 20260831081026 | 60 | 289 | 0.0 | 0.0 | 0.00 | 0.00 | 0.00 | 1019.5 | |
| 20260831080525 | 60 | 289 | 0.0 | 0.0 | 0.00 | 0.00 | 0.00 | 1019.4 | |
| 20260831080025 | 60 | 289 | 0.0 | 0.0 | 0.00 | 0.00 | 0.00 | 1019.3 | |
| 20260831075525 | 60 | 289 | 0.0 | 0.0 | 0.00 | 0.00 | 0.00 | 1019.4 | |
| 20260831075025 | 60 | 289 | 0.0 | 0.0 | 0.00 | 0.00 | 0.00 | 1019.3 | |
| 20260831074525 | 60 | 289 | 0.0 | 0.0 | 0.00 | 0.00 | 0.00 | 1019.5 | |
| 20260831074041 | 60 | 289 | 0.0 | 0.0 | 0.00 | 0.00 | 0.00 | 1019.3 | |
| 20260831073525 | 60 | 289 | 0.0 | 0.0 | 0.00 | 0.00 | 0.00 | 1019.4 | |
| 20260831073055 | 61 | 289 | 0.0 | 0.0 | 0.00 | 0.00 | 0.00 | 1019.3 | |
| 20260831072540 | 61 | 289 | 0.0 | 0.0 | 0.00 | 0.00 | 0.00 | 1019.3 | |
| 20260831072040 | 61 | 289 | 0.0 | 0.0 | 0.00 | 0.00 | 0.00 | 1019.3 | |
| 20260831071525 | 61 | 289 | 0.0 | 0.0 | 0.00 | 0.00 | 0.00 | 1019.2 | |
| 20260831071025 | 61 | 289 | 0.0 | 0.0 | 0.00 | 0.00 | 0.00 | 1019.1 | |
| 20260831070525 | 61 | 289 | 0.0 | 0.0 | 0.00 | 0.00 | 0.00 | 1019.2 | |
| 20260831070040 | 61 | 289 | 0.0 | 0.0 | 0.00 | 0.00 | 0.00 | 1019.3 | |
| 20260831065525 | 61 | 289 | 0.0 | 0.0 | 0.00 | 0.00 | 0.00 | 1019.3 | |
| 20260831065026 | 61 | 289 | 0.0 | 0.0 | 0.00 | 0.00 | 0.00 | 1019.4 | |
| 20260831064525 | 61 | 289 | 0.0 | 0.0 | 0.00 | 0.00 | 0.00 | 1019.4 | |
| 20260831064025 | 61 | 289 | 0.0 | 0.0 | 0.00 | 0.00 | 0.00 | 1019.3 | |
| 20260831063526 | 61 | 289 | 0.0 | 0.0 | 0.00 | 0.00 | 0.00 | 1019.3 | |
| 20260831063025 | 61 | 289 | 0.0 | 0.0 | 0.00 | 0.00 | 0.00 | 1019.3 | |
| 20260831062525 | 61 | 289 | 0.0 | 0.0 | 0.00 | 0.00 | 0.00 | 1019.3 | |
| 20260831062025 | 61 | 289 | 0.0 | 0.0 | 0.00 | 0.00 | 0.00 | 1019.2 | |
| 20260831061525 | 61 | 289 | 0.0 | 0.0 | 0.00 | 0.00 | 0.00 | 1019.1 | |
| 20260831061025 | 61 | 289 | 0.0 | 0.0 | 0.00 | 0.00 | 0.00 | 1019.2 | |
| 20260831060525 | 62 | 289 | 0.0 | 0.0 | 0.00 | 0.00 | 0.00 | 1019.2 | |
| 20260831060040 | 62 | 289 | 0.0 | 0.0 | 0.00 | 0.00 | 0.00 | 1019.0 | |
| 20260831055555 | 62 | 289 | 0.0 | 0.0 | 0.00 | 0.00 | 0.00 | 1019.0 | |
| 20260831055025 | 62 | 289 | 0.0 | 0.0 | 0.00 | 0.00 | 0.00 | 1019.0 | |
| 20260831054526 | 62 | 289 | 0.0 | 0.0 | 0.00 | 0.00 | 0.00 | 1019.1 | |
| 20260831054026 | 62 | 289 | 0.0 | 0.0 | 0.00 | 0.00 | 0.00 | 1019.1 | |
| 20260831053525 | 62 | 289 | 0.0 | 0.0 | 0.00 | 0.00 | 0.00 | 1019.1 | |
| 20260831053025 | 62 | 289 | 0.0 | 0.0 | 0.00 | 0.00 | 0.00 | 1019.2 | |
| 20260831052525 | 62 | 289 | 0.0 | 0.0 | 0.00 | 0.00 | 0.00 | 1019.2 | |
| 20260831052025 | 62 | 289 | 0.0 | 0.0 | 0.00 | 0.00 | 0.00 | 1019.3 | |
| 20260831051540 | 63 | 289 | 0.0 | 0.0 | 0.00 | 0.00 | 0.00 | 1019.3 | |
| 20260831051025 | 63 | 289 | 0.0 | 0.0 | 0.00 | 0.00 | 0.00 | 1019.3 | |
| 20260831050525 | 63 | 289 | 0.0 | 0.0 | 0.00 | 0.00 | 0.00 | 1019.2 | |
| 20260831050025 | 63 | 289 | 0.0 | 0.0 | 0.00 | 0.00 | 0.00 | 1019.3 | |
| 20260831045525 | 63 | 289 | 0.0 | 0.0 | 0.00 | 0.00 | 0.00 | 1019.3 | |
| 20260831045025 | 63 | 289 | 0.0 | 0.0 | 0.00 | 0.00 | 0.00 | 1019.3 | |
| 20260831044525 | 64 | 289 | 0.0 | 0.0 | 0.00 | 0.00 | 0.00 | 1019.3 | |
| 20260831044026 | 64 | 289 | 0.0 | 0.0 | 0.00 | 0.00 | 0.00 | 1019.3 | |
| 20260831043610 | 64 | 289 | 0.0 | 0.0 | 0.00 | 0.00 | 0.00 | 1019.3 | |
| 20260831043025 | 64 | 289 | 0.0 | 0.0 | 0.00 | 0.00 | 0.00 | 1019.3 | |
| 20260831042540 | 64 | 289 | 0.0 | 3.0 | 0.00 | 0.00 | 0.00 | 1019.4 | |
| 20260831042040 | 64 | 289 | 0.0 | 3.0 | 0.00 | 0.00 | 0.00 | 1019.4 | |
| 20260831041526 | 64 | 289 | 0.0 | 0.0 | 0.00 | 0.00 | 0.00 | 1019.3 | |
| 20260831041056 | 64 | 289 | 0.0 | 0.0 | 0.00 | 0.00 | 0.00 | 1019.3 | |
| 20260831040525 | 64 | 289 | 0.0 | 0.0 | 0.00 | 0.00 | 0.00 | 1019.3 | |
| 20260831040025 | 65 | 289 | 0.0 | 0.0 | 0.00 | 0.00 | 0.00 | 1019.2 | |
| 20260831035525 | 65 | 289 | 0.0 | 0.0 | 0.00 | 0.00 | 0.00 | 1019.4 | |
| 20260831035025 | 65 | 289 | 0.0 | 0.0 | 0.00 | 0.00 | 0.00 | 1019.2 | |
| 20260831034525 | 65 | 289 | 0.0 | 5.0 | 0.00 | 0.00 | 0.00 | 1019.3 | |
| 20260831034026 | 65 | 289 | 0.0 | 6.0 | 0.00 | 0.00 | 0.00 | 1019.2 | |
| 20260831033525 | 65 | 290 | 1.0 | 6.0 | 0.00 | 0.00 | 0.00 | 1019.1 | |
| 20260831033040 | 65 | 280 | 3.0 | 6.0 | 0.00 | 0.00 | 0.00 | 1019.0 | |
| 20260831032555 | 65 | 267 | 2.0 | 5.0 | 0.00 | 0.00 | 0.00 | 1019.1 | |
| 20260831032025 | 65 | 266 | 1.0 | 3.0 | 0.00 | 0.00 | 0.00 | 1019.2 | |
| 20260831031524 | 65 | 266 | 0.0 | 3.0 | 0.00 | 0.00 | 0.00 | 1019.2 | |
| 20260831031026 | 65 | 266 | 0.0 | 3.0 | 0.00 | 0.00 | 0.00 | 1019.2 | |
| 20260831030525 | 65 | 266 | 0.0 | 3.0 | 0.00 | 0.00 | 0.00 | 1019.3 | |
| 20260831030025 | 65 | 267 | 1.0 | 3.0 | 0.00 | 0.00 | 0.00 | 1019.5 | |
| 20260831025526 | 66 | 267 | 1.0 | 5.0 | 0.00 | 0.00 | 0.00 | 1019.5 | |
| 20260831025025 | 66 | 271 | 1.0 | 5.0 | 0.00 | 0.00 | 0.00 | 1019.5 | |
| 20260831024525 | 66 | 271 | 1.0 | 3.0 | 0.00 | 0.00 | 0.00 | 1019.4 | |
| 20260831024025 | 66 | 271 | 0.0 | 0.0 | 0.00 | 0.00 | 0.00 | 1019.5 | |
| 20260831023525 | 66 | 271 | 0.0 | 0.0 | 0.00 | 0.00 | 0.00 | 1019.5 | |
| 20260831023025 | 66 | 271 | 0.0 | 0.0 | 0.00 | 0.00 | 0.00 | 1019.5 | |
| 20260831022526 | 66 | 271 | 0.0 | 3.0 | 0.00 | 0.00 | 0.00 | 1019.4 | |
| 20260831022025 | 67 | 271 | 0.0 | 3.0 | 0.00 | 0.00 | 0.00 | 1019.2 | |
| 20260831021525 | 67 | 270 | 2.0 | 3.0 | 0.00 | 0.00 | 0.00 | 1019.3 | |
| 20260831021025 | 67 | 271 | 1.0 | 3.0 | 0.00 | 0.00 | 0.00 | 1019.2 | |
| 20260831020525 | 68 | 271 | 0.0 | 3.0 | 0.00 | 0.00 | 0.00 | 1019.3 | |
| 20260831020025 | 68 | 271 | 1.0 | 3.0 | 0.00 | 0.00 | 0.00 | 1019.3 | |
| 20260831015525 | 68 | 271 | 0.0 | 5.0 | 0.00 | 0.00 | 0.00 | 1019.2 | |
| 20260831015055 | 68 | 271 | 0.0 | 5.0 | 0.00 | 0.00 | 0.00 | 1019.1 | |
| 20260831014525 | 68 | 271 | 3.0 | 5.0 | 0.00 | 0.00 | 0.00 | 1019.1 | |
| 20260831014039 | 68 | 271 | 0.0 | 5.0 | 0.00 | 0.00 | 0.00 | 1019.1 | |
| 20260831013525 | 68 | 271 | 1.0 | 5.0 | 0.00 | 0.00 | 0.00 | 1019.3 | |
| 20260831013025 | 68 | 271 | 1.0 | 8.0 | 0.00 | 0.00 | 0.00 | 1019.2 | |
| 20260831012525 | 68 | 271 | 0.0 | 8.0 | 0.00 | 0.00 | 0.00 | 1019.0 | |
| 20260831012025 | 68 | 285 | 2.0 | 5.0 | 0.00 | 0.00 | 0.00 | 1019.0 | |
| 20260831011525 | 68 | 285 | 1.0 | 5.0 | 0.00 | 0.00 | 0.00 | 1018.9 | |
| 20260831011025 | 68 | 285 | 0.0 | 8.0 | 0.00 | 0.00 | 0.00 | 1019.0 | |
| 20260831010524 | 68 | 285 | 0.0 | 8.0 | 0.00 | 0.00 | 0.00 | 1018.8 | |
| 20260831010025 | 68 | 292 | 3.0 | 8.0 | 0.00 | 0.00 | 0.00 | 1018.7 | |
| 20260831005524 | 68 | 289 | 2.0 | 8.0 | 0.00 | 0.00 | 0.00 | 1018.7 | |
| 20260831005025 | 69 | 275 | 0.0 | 5.0 | 0.00 | 0.00 | 0.00 | 1018.7 | |
| 20260831004524 | 69 | 276 | 0.0 | 6.0 | 0.00 | 0.00 | 0.00 | 1018.6 | |
| 20260831004054 | 69 | 276 | 1.0 | 6.0 | 0.00 | 0.00 | 0.00 | 1018.4 | |
| 20260831003525 | 69 | 263 | 1.0 | 6.0 | 0.00 | 0.00 | 0.00 | 1018.4 | |
| 20260831003039 | 69 | 234 | 1.0 | 6.0 | 0.00 | 0.00 | 0.00 | 1018.2 | |
| 20260831002524 | 69 | 278 | 2.0 | 8.0 | 0.00 | 0.00 | 0.00 | 1018.2 | |
| 20260831002040 | 69 | 256 | 2.0 | 8.0 | 0.00 | 0.00 | 0.00 | 1018.4 | |
| 20260831001524 | 69 | 283 | 2.0 | 6.0 | 0.00 | 0.00 | 0.00 | 1018.5 | |
| 20260831001055 | 69 | 283 | 0.0 | 3.0 | 0.00 | 0.00 | 0.00 | 1018.4 | |
| 20260831000525 | 69 | 283 | 0.0 | 3.0 | 0.00 | 0.00 | 0.00 | 1018.3 | |
| 20260831000055 | 69 | 283 | 0.0 | 3.0 | 0.00 | 0.00 | 0.00 | 1018.3 | |
| 20260830235526 | 69 | 283 | 0.0 | 3.0 | 0.00 | 0.00 | 0.00 | 1018.3 | |
| 20260830235025 | 69 | 283 | 0.0 | 8.0 | 0.00 | 0.00 | 0.00 | 1018.1 | |
| 20260830234541 | 69 | 283 | 0.0 | 8.0 | 0.00 | 0.00 | 0.00 | 1017.9 | |
| 20260830234025 | 69 | 284 | 2.0 | 6.0 | 0.00 | 0.00 | 0.00 | 1017.9 | |
| 20260830233025 | 69 | 280 | 1.0 | 6.0 | 0.00 | 0.00 | 0.00 | 1017.9 | |
| 20260830232555 | 69 | 296 | 0.0 | 5.0 | 0.00 | 0.00 | 0.00 | 1017.8 | |
| 20260830232040 | 70 | 296 | 2.0 | 5.0 | 0.00 | 0.00 | 0.00 | 1017.9 | |
| 20260830231524 | 70 | 287 | 0.0 | 3.0 | 0.00 | 0.00 | 0.00 | 1017.7 | |
| 20260830231025 | 70 | 287 | 0.0 | 6.0 | 0.00 | 0.00 | 0.00 | 1017.7 | |
| 20260830230525 | 70 | 286 | 1.0 | 6.0 | 0.00 | 0.00 | 0.00 | 1017.6 | |
| 20260830230040 | 70 | 283 | 1.0 | 6.0 | 0.00 | 0.00 | 0.00 | 1017.6 | |
| 20260830225524 | 70 | 269 | 2.0 | 6.0 | 0.00 | 0.00 | 0.00 | 1017.5 | |
| 20260830225054 | 71 | 222 | 3.0 | 8.0 | 0.00 | 0.00 | 0.00 | 1017.7 | |
| 20260830224525 | 71 | 265 | 0.0 | 8.0 | 0.00 | 0.00 | 0.00 | 1017.6 | |
| 20260830224025 | 71 | 280 | 2.0 | 8.0 | 0.00 | 0.00 | 0.00 | 1017.5 | |
| 20260830223525 | 71 | 263 | 2.0 | 9.0 | 0.00 | 0.00 | 0.00 | 1017.6 | |
| 20260830223025 | 71 | 259 | 5.0 | 9.0 | 0.00 | 0.00 | 0.00 | 1017.7 | |
| 20260830222524 | 71 | 264 | 0.0 | 13.0 | 0.00 | 0.00 | 0.00 | 1017.7 | |
| 20260830222024 | 71 | 266 | 5.0 | 13.0 | 0.00 | 0.00 | 0.00 | 1017.9 | |
| 20260830221524 | 71 | 251 | 0.0 | 9.0 | 0.00 | 0.00 | 0.00 | 1018.0 | |
| 20260830221025 | 71 | 277 | 0.0 | 8.0 | 0.00 | 0.00 | 0.00 | 1017.9 | |
| 20260830220539 | 71 | 270 | 2.0 | 8.0 | 0.00 | 0.00 | 0.00 | 1017.9 | |
| 20260830220024 | 71 | 262 | 1.0 | 8.0 | 0.00 | 0.00 | 0.00 | 1017.7 | |
| 20260830215524 | 71 | 272 | 2.0 | 11.0 | 0.00 | 0.00 | 0.00 | 1017.5 | |
| 20260830215024 | 71 | 267 | 2.0 | 11.0 | 0.00 | 0.00 | 0.00 | 1017.5 | |
| 20260830214525 | 72 | 277 | 3.0 | 11.0 | 0.00 | 0.00 | 0.00 | 1017.6 | |
| 20260830214024 | 73 | 282 | 0.0 | 14.0 | 0.00 | 0.00 | 0.00 | 1017.7 | |
| 20260830213539 | 73 | 240 | 3.0 | 14.0 | 0.00 | 0.00 | 0.00 | 1017.8 | |
| 20260830213025 | 74 | 266 | 3.0 | 14.0 | 0.00 | 0.00 | 0.00 | 1017.8 | |
| 20260830212524 | 74 | 291 | 2.0 | 14.0 | 0.00 | 0.00 | 0.00 | 1017.5 | |
| 20260830212024 | 75 | 309 | 3.0 | 13.0 | 0.00 | 0.00 | 0.00 | 1017.4 | |
| 20260830211524 | 75 | 300 | 5.0 | 13.0 | 0.00 | 0.00 | 0.00 | 1017.3 | |
| 20260830211024 | 75 | 252 | 3.0 | 6.0 | 0.00 | 0.00 | 0.00 | 1017.2 | |
| 20260830210525 | 75 | 278 | 1.0 | 8.0 | 0.00 | 0.00 | 0.00 | 1017.3 | |
| 20260830210025 | 75 | 237 | 1.0 | 8.0 | 0.00 | 0.00 | 0.00 | 1017.2 | |
| 20260830205525 | 75 | 297 | 0.0 | 5.0 | 0.00 | 0.00 | 0.00 | 1017.2 | |
| 20260830205024 | 76 | 296 | 1.0 | 5.0 | 0.00 | 0.00 | 0.00 | 1017.2 | |
| 20260830204525 | 76 | 305 | 0.0 | 5.0 | 0.00 | 0.00 | 0.00 | 1017.2 | |
| 20260830204025 | 76 | 306 | 2.0 | 5.0 | 0.00 | 0.00 | 0.00 | 1017.3 | |
| 20260830203540 | 76 | 87 | 0.0 | 2.0 | 0.00 | 0.00 | 0.00 | 1017.3 | |
| 20260830203025 | 77 | 60 | 0.0 | 2.0 | 0.00 | 0.00 | 0.00 | 1017.3 | |
| 20260830202526 | 77 | 36 | 1.0 | 3.0 | 0.00 | 0.00 | 0.00 | 1017.2 | |
| 20260830202025 | 77 | 35 | 0.0 | 3.0 | 0.00 | 0.00 | 0.00 | 1017.2 | |
| 20260830201526 | 78 | 39 | 0.0 | 5.0 | 0.00 | 0.00 | 0.00 | 1017.1 | |
| 20260830201025 | 78 | 227 | 0.0 | 6.0 | 0.00 | 0.00 | 0.00 | 1017.2 | |
| 20260830200524 | 78 | 277 | 0.0 | 6.0 | 0.00 | 0.00 | 0.00 | 1017.1 | |
| 20260830200024 | 78 | 286 | 0.0 | 6.0 | 0.00 | 0.00 | 0.00 | 1017.2 | |
| 20260830195524 | 78 | 254 | 1.0 | 8.0 | 0.00 | 0.00 | 0.00 | 1017.1 | |
| 20260830195024 | 78 | 271 | 1.0 | 8.0 | 0.00 | 0.00 | 0.00 | 1017.1 | |
| 20260830194524 | 78 | 204 | 0.0 | 5.0 | 0.00 | 0.00 | 0.00 | 1017.1 | |
| 20260830194024 | 78 | 203 | 0.0 | 5.0 | 0.00 | 0.00 | 0.00 | 1017.2 | |
| 20260830193524 | 77 | 183 | 2.0 | 5.0 | 0.00 | 0.00 | 0.00 | 1017.3 | |
| 20260830193024 | 77 | 152 | 0.0 | 6.0 | 0.00 | 0.00 | 0.00 | 1017.3 | |
| 20260830192524 | 77 | 96 | 2.0 | 6.0 | 0.00 | 0.00 | 0.00 | 1017.5 | |
| 20260830192024 | 77 | 172 | 1.0 | 5.0 | 0.00 | 0.00 | 0.00 | 1017.5 | |
| 20260830191524 | 77 | 169 | 2.0 | 5.0 | 0.00 | 0.00 | 0.00 | 1017.6 | |
| 20260830191024 | 77 | 169 | 0.0 | 5.0 | 0.00 | 0.00 | 0.00 | 1017.7 | |
| 20260830190524 | 77 | 169 | 0.0 | 5.0 | 0.00 | 0.00 | 0.00 | 1017.7 | |
| 20260830190024 | 77 | 166 | 1.0 | 5.0 | 0.00 | 0.00 | 0.00 | 1017.8 | |
| 20260830185524 | 77 | 56 | 0.0 | 6.0 | 0.00 | 0.00 | 0.00 | 1017.9 | |
| 20260830185025 | 76 | 56 | 0.0 | 6.0 | 0.00 | 0.00 | 0.00 | 1018.1 | |
| 20260830184539 | 76 | 335 | 4.0 | 5.0 | 0.00 | 0.00 | 0.00 | 1018.0 | |
| 20260830184024 | 76 | 183 | 4.0 | 5.0 | 0.00 | 0.00 | 0.00 | 1018.0 | |
| 20260830183525 | 76 | 239 | 1.0 | 3.0 | 0.00 | 0.00 | 0.00 | 1018.1 | |
| 20260830183024 | 76 | 239 | 0.0 | 3.0 | 0.00 | 0.00 | 0.00 | 1018.1 | |
| 20260830182525 | 76 | 239 | 0.0 | 3.0 | 0.00 | 0.00 | 0.00 | 1018.2 | |
| 20260830182024 | 76 | 239 | 1.0 | 3.0 | 0.00 | 0.00 | 0.00 | 1018.1 | |
| 20260830181524 | 76 | 239 | 0.0 | 3.0 | 0.00 | 0.00 | 0.00 | 1018.2 | |
| 20260830181025 | 75 | 239 | 0.0 | 3.0 | 0.00 | 0.00 | 0.00 | 1018.3 | |
| 20260830180524 | 75 | 239 | 0.0 | 5.0 | 0.00 | 0.00 | 0.00 | 1018.3 | |
| 20260830180024 | 75 | 239 | 0.0 | 5.0 | 0.00 | 0.00 | 0.00 | 1018.4 | |
| 20260830175539 | 74 | 239 | 3.0 | 3.0 | 0.00 | 0.00 | 0.00 | 1018.3 | |
| 20260830175024 | 74 | 239 | 0.0 | 5.0 | 0.00 | 0.00 | 0.00 | 1018.4 | |
| 20260830174524 | 74 | 239 | 0.0 | 5.0 | 0.00 | 0.00 | 0.00 | 1018.5 | |
| 20260830174024 | 74 | 239 | 0.0 | 8.0 | 0.00 | 0.00 | 0.00 | 1018.4 | |
| 20260830173524 | 74 | 159 | 3.0 | 8.0 | 0.00 | 0.00 | 0.00 | 1018.5 | |
| 20260830173024 | 74 | 172 | 0.0 | 3.0 | 0.00 | 0.00 | 0.00 | 1018.6 | |
| 20260830172557 | 73 | 172 | 0.0 | 3.0 | 0.00 | 0.00 | 0.00 | 1018.8 | |
| 20260830172025 | 73 | 172 | 0.0 | 3.0 | 0.00 | 0.00 | 0.00 | 1018.8 | |
| 20260830171524 | 73 | 172 | 0.0 | 3.0 | 0.00 | 0.00 | 0.00 | 1018.9 | |
| 20260830171024 | 73 | 172 | 1.0 | 3.0 | 0.00 | 0.00 | 0.00 | 1019.0 | |
| 20260830170524 | 73 | 171 | 0.0 | 0.0 | 0.00 | 0.00 | 0.00 | 1019.0 | |
| 20260830170039 | 73 | 171 | 0.0 | 2.0 | 0.00 | 0.00 | 0.00 | 1019.0 | |
| 20260830165524 | 73 | 171 | 0.0 | 5.0 | 0.00 | 0.00 | 0.00 | 1018.9 | |
| 20260830165024 | 73 | 171 | 0.0 | 5.0 | 0.00 | 0.00 | 0.00 | 1019.0 | |
| 20260830164524 | 73 | 280 | 0.0 | 5.0 | 0.00 | 0.00 | 0.00 | 1018.9 | |
| 20260830164024 | 74 | 286 | 0.0 | 3.0 | 0.00 | 0.00 | 0.00 | 1018.7 | |
| 20260830163524 | 74 | 288 | 0.0 | 2.0 | 0.00 | 0.00 | 0.00 | 1018.8 | |
| 20260830163027 | 74 | 288 | 0.0 | 3.0 | 0.00 | 0.00 | 0.00 | 1018.8 | |
| 20260830162524 | 73 | 288 | 0.0 | 3.0 | 0.00 | 0.00 | 0.00 | 1018.8 | |
| 20260830162024 | 73 | 288 | 3.0 | 3.0 | 0.00 | 0.00 | 0.00 | 1018.9 | |
| 20260830161525 | 73 | 288 | 0.0 | 3.0 | 0.00 | 0.00 | 0.00 | 1019.1 | |
| 20260830161025 | 73 | 288 | 0.0 | 2.0 | 0.00 | 0.00 | 0.00 | 1019.1 | |
| 20260830160526 | 73 | 289 | 0.0 | 2.0 | 0.00 | 0.00 | 0.00 | 1019.4 | |
| 20260830160024 | 73 | 289 | 0.0 | 2.0 | 0.00 | 0.00 | 0.00 | 1019.6 | |
| 20260830155524 | 73 | 289 | 0.0 | 2.0 | 0.00 | 0.00 | 0.00 | 1019.6 | |
| 20260830155024 | 73 | 290 | 0.0 | 2.0 | 0.00 | 0.00 | 0.00 | 1019.7 | |
| 20260830154524 | 73 | 290 | 0.0 | 3.0 | 0.00 | 0.00 | 0.00 | 1019.6 | |
| 20260830154039 | 73 | 290 | 0.0 | 3.0 | 0.00 | 0.00 | 0.00 | 1019.7 | |
| 20260830153525 | 73 | 290 | 1.0 | 5.0 | 0.00 | 0.00 | 0.00 | 1019.6 | |
| 20260830153024 | 73 | 290 | 0.0 | 6.0 | 0.00 | 0.00 | 0.00 | 1019.7 | |
| 20260830152524 | 73 | 290 | 0.0 | 6.0 | 0.00 | 0.00 | 0.00 | 1019.8 | |
| 20260830152024 | 73 | 290 | 1.0 | 5.0 | 0.00 | 0.00 | 0.00 | 1019.9 | |
| 20260830151524 | 73 | 290 | 0.0 | 5.0 | 0.00 | 0.00 | 0.00 | 1019.8 | |
| 20260830151024 | 73 | 290 | 0.0 | 3.0 | 0.00 | 0.00 | 0.00 | 1019.8 | |
| 20260830150525 | 72 | 290 | 1.0 | 6.0 | 0.00 | 0.00 | 0.00 | 1019.9 | |
| 20260830150024 | 72 | 290 | 3.0 | 6.0 | 0.00 | 0.00 | 0.00 | 1019.8 | |
| 20260830145524 | 72 | 290 | 0.0 | 6.0 | 0.00 | 0.00 | 0.00 | 1019.8 | |
| 20260830145024 | 72 | 290 | 0.0 | 6.0 | 0.00 | 0.00 | 0.00 | 1019.8 | |
| 20260830144525 | 72 | 290 | 0.0 | 6.0 | 0.00 | 0.00 | 0.00 | 1019.9 | |
| 20260830144024 | 72 | 290 | 3.0 | 5.0 | 0.00 | 0.00 | 0.00 | 1019.8 | |
| 20260830143524 | 72 | 290 | 1.0 | 6.0 | 0.00 | 0.00 | 0.00 | 1019.9 | |
| 20260830143024 | 72 | 290 | 4.0 | 6.0 | 0.00 | 0.00 | 0.00 | 1020.0 | |
| 20260830142524 | 71 | 290 | 3.0 | 6.0 | 0.00 | 0.00 | 0.00 | 1020.0 | |
| 20260830142024 | 70 | 290 | 1.0 | 6.0 | 0.00 | 0.00 | 0.00 | 1019.9 | |
| 20260830141524 | 70 | 290 | 3.0 | 5.0 | 0.00 | 0.00 | 0.00 | 1019.7 | |
| 20260830141024 | 69 | 290 | 0.0 | 5.0 | 0.00 | 0.00 | 0.00 | 1019.9 | |
| 20260830140524 | 69 | 290 | 3.0 | 3.0 | 0.00 | 0.00 | 0.00 | 1020.0 | |
| 20260830140025 | 68 | 290 | 1.0 | 3.0 | 0.00 | 0.00 | 0.00 | 1019.9 | |
| 20260830135524 | 68 | 290 | 0.0 | 0.0 | 0.00 | 0.00 | 0.00 | 1019.8 | |
| 20260830135024 | 68 | 290 | 0.0 | 0.0 | 0.00 | 0.00 | 0.00 | 1020.0 | |
| 20260830134554 | 68 | 290 | 0.0 | 2.0 | 0.00 | 0.00 | 0.00 | 1020.0 |